Tracking 33485 objects as of 15-Mar-2026
HD Live streaming from Space Station
objects crossing your sky now

STARLINK-1265

Track STARLINK-1265 now!
10-day predictions
STARLINK-1265 is classified as:


NORAD ID: 45406
Int'l Code: 2020-019AY
Perigee: 481.0 km
Apogee: 483.8 km
Inclination: 53.2 °
Period: 94.1 minutes
Semi major axis: 6853 km
RCS: Unknown
Launch date: March 18, 2020
Source: United States (US)
Launch site: AIR FORCE EASTERN TEST RANGE (AFETR)
Your satellite tracking list
Your tracking list is empty




NASA's NSSDC Master Catalog

Two Line Element Set (TLE):
1 45406U 20019AY  26074.25266363 -.00003281  00000-0 -98742-4 0  9993
2 45406  53.1601 103.5052 0002080  90.7268 269.3971 15.30178870330828
Source of the keplerian elements: AFSPC